KJ4AJP Weather Reports


time (UTC)temp
F
wind
direction
speed
knots
gust
knots
rain 1hr
in
rain 24hr
in
rain mn
in
humidity
%
barometer
mb
20260502194056 71 44 1.7 1.7 0.00 0.00 0.00 33 1016.4
20260502193553 70 68 0.9 0.9 0.00 0.00 0.00 34 1016.5
20260502193050 68 10 0.9 1.7 0.00 0.00 0.00 39 1016.6
20260502192545 69 44 0.9 0.9 0.00 0.00 0.00 35 1016.4
20260502192043 70 107 3.5 6.1 0.00 0.00 0.00 32 1016.7
20260502191540 69 52 1.7 1.7 0.00 0.00 0.00 34 1016.5
20260502191038 70 8 3.5 3.5 0.00 0.00 0.00 33 1016.4
20260502190536 71 40 0.0 0.0 0.00 0.00 0.00 36 1016.5
20260502190033 69 76 2.6 3.5 0.00 0.00 0.00 34 1016.5
20260502185533 68 39 1.7 2.6 0.00 0.00 0.00 33 1016.5
20260502185030 69 63 0.9 0.9 0.00 0.00 0.00 34 1016.6
20260502184526 68 49 0.0 0.9 0.00 0.00 0.00 35 1016.6
20260502184022 68 288 3.5 5.2 0.00 0.00 0.00 39 1016.6
20260502183518 68 46 1.7 2.6 0.00 0.00 0.00 35 1016.8
20260502183015 67 288 5.2 9.6 0.00 0.00 0.00 38 1016.7
20260502182509 65 50 0.0 0.0 0.00 0.00 0.00 44 1016.9
20260502182006 66 74 1.7 1.7 0.00 0.00 0.00 41 1016.9
20260502181504 67 42 0.0 0.0 0.00 0.00 0.00 38 1016.6
20260502181003 68 240 2.6 2.6 0.00 0.00 0.00 41 1016.8
20260502180459 66 34 0.0 0.9 0.00 0.00 0.00 41 1016.7
20260502170418 66 324 2.6 2.6 0.00 0.00 0.00 43 1017.4
20260502163901 66 320 1.7 2.6 0.00 0.00 0.00 41 1017.8
20260502163357 64 4 1.7 1.7 0.00 0.00 0.00 46 1017.9
20260502162855 63 22 0.9 1.7 0.00 0.00 0.00 45 1018.0
20260502162351 64 271 3.5 3.5 0.00 0.00 0.00 40 1018.0
20260502161849 65 305 4.3 6.1 0.00 0.00 0.00 39 1018.0
20260502161345 66 330 1.7 2.6 0.00 0.00 0.00 41 1018.0
20260502160843 64 33 1.7 1.7 0.00 0.00 0.00 43 1018.0
20260502160341 63 24 1.7 1.7 0.00 0.00 0.00 43 1017.9
20260502152316 65 56 0.9 0.9 0.00 0.00 0.00 46 1018.2
20260502151814 65 168 0.9 0.9 0.00 0.00 0.00 45 1018.1
20260502151310 64 31 0.9 1.7 0.00 0.00 0.00 41 1018.1
20260502150808 64 235 0.9 1.7 0.00 0.00 0.00 46 1018.1
20260502150304 63 300 3.5 3.5 0.00 0.00 0.00 46 1018.2
20260502130653 54 62 0.0 0.0 0.00 0.00 0.00 73 1017.9
20260502130150 53 53 0.0 0.0 0.00 0.00 0.00 74 1017.9
20260502123636 46 54 0.0 0.0 0.00 0.00 0.00 97 1017.9
20260502123133 46 54 0.0 0.0 0.00 0.00 0.00 98 1017.7
20260502122629 45 54 0.0 0.0 0.00 0.00 0.00 99 1017.7
20260502122126 44 54 0.0 0.0 0.00 0.00 0.00 98 1017.6
20260502121624 43 54 0.0 0.0 0.00 0.00 0.00 98 1017.6
20260502121121 42 54 0.0 0.0 0.00 0.00 0.00 98 1017.6
20260502120617 42 54 0.0 0.0 0.00 0.00 0.00 98 1017.6
20260502120114 41 54 0.0 0.0 0.00 0.00 0.00 98 1017.5
20260502115613 41 54 0.0 0.0 0.00 0.00 0.00 98 1017.4
20260502115108 41 54 0.0 0.0 0.00 0.00 0.00 98 1017.5
20260502114604 40 54 0.0 0.0 0.00 0.00 0.00 98 1017.4
20260502114102 40 54 0.0 0.0 0.00 0.00 0.00 97 1017.4
20260502113559 39 54 0.0 0.0 0.00 0.00 0.00 97 1017.1
20260502113057 39 54 0.0 0.0 0.00 0.00 0.00 97 1017.3
20260502112555 39 54 0.0 0.0 0.00 0.00 0.00 97 1017.1
20260502112052 39 54 0.0 0.0 0.00 0.00 0.00 97 1017.1
20260502111549 40 54 0.0 0.0 0.00 0.00 0.00 97 1017.0
20260502111047 40 54 0.0 0.0 0.00 0.00 0.00 97 1017.1
20260502110544 40 54 0.0 0.0 0.00 0.00 0.00 97 1016.9
20260502110042 40 54 0.0 0.0 0.00 0.00 0.00 96 1017.1
20260502105539 40 54 0.0 0.0 0.00 0.00 0.00 96 1016.9
20260502105037 40 54 0.0 0.0 0.00 0.00 0.00 96 1017.1
20260502104533 41 54 0.0 0.0 0.00 0.00 0.00 96 1017.0
20260502104031 41 54 0.0 0.0 0.00 0.00 0.00 96 1017.0
20260502103529 41 54 0.0 0.0 0.00 0.00 0.00 96 1017.0
20260502103027 40 54 0.0 0.0 0.00 0.00 0.00 96 1016.9
20260502102522 40 54 0.0 0.0 0.00 0.00 0.00 96 1016.8
20260502102020 40 54 0.0 0.0 0.00 0.00 0.00 95 1016.9
20260502101518 40 54 0.0 0.0 0.00 0.00 0.00 95 1016.9
20260502101016 40 54 0.0 0.0 0.00 0.00 0.00 95 1016.8
20260502100514 41 54 0.0 0.0 0.00 0.00 0.00 94 1016.8
20260502091448 41 54 0.0 0.0 0.00 0.00 0.00 91 1016.5
20260502090946 41 54 0.0 0.0 0.00 0.00 0.00 90 1016.6
20260502090442 41 54 0.0 0.0 0.00 0.00 0.00 89 1016.5
20260502071337 44 54 0.0 0.0 0.00 0.00 0.00 83 1017.1
20260502070835 44 54 0.0 0.0 0.00 0.00 0.00 82 1017.3
20260502070332 44 54 0.0 0.0 0.00 0.00 0.00 80 1017.1
20260502065831 44 54 0.0 0.0 0.00 0.00 0.00 80 1017.2
20260502065329 44 54 0.0 0.0 0.00 0.00 0.00 79 1017.3
20260502064827 44 54 0.0 0.0 0.00 0.00 0.00 78 1017.2
20260502064324 44 54 0.0 0.0 0.00 0.00 0.00 78 1017.1
20260502063822 44 54 0.0 0.0 0.00 0.00 0.00 79 1017.2
20260502063319 44 54 0.0 0.0 0.00 0.00 0.00 79 1017.4
20260502062816 45 54 0.0 0.0 0.00 0.00 0.00 78 1017.4
20260502062314 45 54 0.0 0.0 0.00 0.00 0.00 78 1017.5
20260502061812 45 54 0.0 0.0 0.00 0.00 0.00 77 1017.4
20260502061310 45 54 0.0 0.0 0.00 0.00 0.00 77 1017.7
20260502060805 45 54 0.0 0.0 0.00 0.00 0.00 77 1017.7
20260502060300 44 54 0.0 0.0 0.00 0.00 0.00 77 1017.6
20260502055759 44 54 0.0 0.0 0.00 0.00 0.00 79 1017.7
20260502055256 44 54 0.0 0.0 0.00 0.00 0.00 78 1017.6
20260502054755 44 54 0.0 0.0 0.00 0.00 0.00 76 1017.8
20260502054253 45 54 0.0 0.0 0.00 0.00 0.00 75 1017.6
20260502053750 45 54 0.0 0.0 0.00 0.00 0.00 75 1017.5
20260502053247 45 54 0.0 0.0 0.00 0.00 0.00 75 1017.5
20260502052745 45 54 0.0 0.0 0.00 0.00 0.00 75 1017.4
20260502052243 45 54 0.0 0.0 0.00 0.00 0.00 75 1017.3
20260502051740 45 54 0.0 0.0 0.00 0.00 0.00 75 1017.0
20260502051239 45 54 0.0 0.0 0.00 0.00 0.00 73 1017.0
20260502050734 46 54 0.0 0.0 0.00 0.00 0.00 72 1017.0
20260502050231 46 54 0.0 0.0 0.00 0.00 0.00 72 1017.1
20260502045728 46 54 0.0 0.0 0.00 0.00 0.00 72 1017.3
20260502045225 46 54 0.0 0.0 0.00 0.00 0.00 72 1017.1
20260502044722 46 54 0.0 0.0 0.00 0.00 0.00 71 1017.0
20260502044218 47 54 0.0 0.0 0.00 0.00 0.00 71 1016.9
20260502043715 47 54 0.0 0.0 0.00 0.00 0.00 69 1016.9
20260502043213 47 54 0.0 0.0 0.00 0.00 0.00 69 1017.0
20260502042712 48 54 0.0 0.0 0.00 0.00 0.00 67 1017.1
20260502042210 48 54 0.0 0.0 0.00 0.00 0.00 66 1016.9
20260502041708 49 54 0.0 0.0 0.00 0.00 0.00 64 1017.0
20260502041204 49 54 0.0 0.0 0.00 0.00 0.00 63 1017.0
20260502040701 50 54 0.0 0.0 0.00 0.00 0.00 62 1017.0
20260502040158 50 54 0.0 0.0 0.00 0.00 0.00 63 1017.3
20260502035654 50 54 0.0 0.0 0.00 0.00 0.00 62 1017.3
20260502035151 51 54 0.0 0.0 0.00 0.00 0.00 61 1017.4
20260502034649 51 54 0.0 0.0 0.00 0.00 0.00 59 1017.5
20260502034147 50 54 0.0 0.0 0.00 0.00 0.00 59 1017.4
20260502033645 50 54 0.0 0.0 0.00 0.00 0.00 59 1017.8
20260502033142 51 54 0.0 0.0 0.00 0.00 0.00 59 1017.8
20260502032638 51 54 0.0 0.0 0.00 0.00 0.00 58 1017.9
20260502032135 51 54 0.0 0.0 0.00 0.00 0.00 58 1017.9
20260502031633 51 54 0.0 0.0 0.00 0.00 0.00 57 1017.9
20260502031130 52 54 0.0 0.0 0.00 0.00 0.00 58 1018.0
20260502030629 52 54 0.0 0.0 0.00 0.00 0.00 56 1018.0
20260502030127 53 54 0.0 0.0 0.00 0.00 0.00 55 1018.0
20260502025623 53 54 0.0 0.0 0.00 0.00 0.00 54 1018.1
20260502025122 53 54 0.0 0.0 0.00 0.00 0.00 53 1018.1
20260502024619 53 54 0.0 0.0 0.00 0.00 0.00 53 1018.2
20260502024117 54 54 0.0 0.0 0.00 0.00 0.00 53 1018.1
20260502023615 54 54 0.0 0.0 0.00 0.00 0.00 51 1018.2
20260502023112 54 54 0.0 0.0 0.00 0.00 0.00 52 1018.1
20260502022608 54 54 0.0 0.0 0.00 0.00 0.00 51 1018.2
20260502022106 55 54 0.0 0.0 0.00 0.00 0.00 52 1018.0
20260502021603 54 54 0.0 0.0 0.00 0.00 0.00 51 1017.9
20260502021100 54 54 0.0 0.0 0.00 0.00 0.00 50 1017.9
20260502020557 54 54 0.0 0.0 0.00 0.00 0.00 50 1018.0
20260502020054 54 53 0.0 0.0 0.00 0.00 0.00 53 1018.1
20260502015552 54 53 0.0 0.0 0.00 0.00 0.00 52 1017.8
20260502015048 55 53 0.0 0.0 0.00 0.00 0.00 52 1017.8
20260502014545 55 54 0.0 0.0 0.00 0.00 0.00 51 1017.4
20260502014042 55 52 0.0 0.0 0.00 0.00 0.00 51 1017.5
20260502013537 55 52 0.0 0.0 0.00 0.00 0.00 51 1017.4
20260502013034 56 52 0.0 0.0 0.00 0.00 0.00 51 1017.3
20260502012532 56 52 0.0 0.0 0.00 0.00 0.00 51 1017.4
20260502012029 56 34 0.0 0.9 0.00 0.00 0.00 46 1017.4
20260502011526 56 56 0.0 0.0 0.00 0.00 0.00 48 1017.1
20260502011022 56 59 0.0 0.0 0.00 0.00 0.00 49 1017.0
20260502010520 56 56 0.0 0.0 0.00 0.00 0.00 49 1017.0
20260502010016 56 55 0.0 0.0 0.00 0.00 0.00 48 1016.7
20260502005514 57 56 0.0 0.0 0.00 0.00 0.00 50 1016.6
20260502005011 57 54 0.0 0.0 0.00 0.00 0.00 45 1016.5
20260502004507 58 51 0.0 0.0 0.00 0.00 0.00 46 1016.8
20260502004004 58 54 0.0 0.0 0.00 0.00 0.00 44 1016.4
20260502003501 58 54 0.0 0.0 0.00 0.00 0.00 41 1016.6
20260502002957 59 54 0.0 0.0 0.00 0.00 0.00 41 1016.4
20260502002455 59 54 0.0 0.0 0.00 0.00 0.00 41 1016.3
20260502001952 59 55 0.0 0.0 0.00 0.00 0.00 41 1016.4
20260502001449 60 59 0.0 0.9 0.00 0.00 0.00 43 1015.8
20260502000947 60 54 0.0 0.0 0.00 0.00 0.00 40 1015.6
20260502000446 60 52 0.0 0.0 0.00 0.00 0.00 39 1015.7
20260501235941 60 56 0.0 0.0 0.00 0.00 0.00 41 1015.7
20260501235437 61 55 0.0 0.0 0.00 0.00 0.00 39 1015.7
20260501234932 61 48 0.0 0.0 0.00 0.00 0.00 37 1015.7
20260501234429 61 67 0.9 1.7 0.00 0.00 0.00 37 1015.6
20260501233928 62 57 0.0 0.0 0.00 0.00 0.00 35 1015.4
20260501233425 62 57 0.0 0.0 0.00 0.00 0.00 38 1015.2
20260501232920 62 51 0.0 0.0 0.00 0.00 0.00 36 1015.3
20260501232418 62 38 1.7 1.7 0.00 0.00 0.00 35 1015.4
20260501231915 63 68 0.9 0.9 0.00 0.00 0.00 33 1015.5
20260501231414 63 61 0.9 0.9 0.00 0.00 0.00 36 1015.2
20260501230911 63 50 0.0 0.0 0.00 0.00 0.00 36 1015.1
20260501230410 63 58 0.9 0.9 0.00 0.00 0.00 34 1015.0
20260501225907 63 24 0.9 2.6 0.00 0.00 0.00 34 1014.9
20260501225404 63 48 0.0 0.0 0.00 0.00 0.00 33 1014.9
20260501224900 64 47 1.7 1.7 0.00 0.00 0.00 32 1014.8
20260501224358 64 58 0.9 0.9 0.00 0.00 0.00 33 1014.9
20260501223854 64 64 0.9 0.9 0.00 0.00 0.00 33 1014.8
20260501223350 64 28 1.7 1.7 0.00 0.00 0.00 31 1014.9
20260501222846 64 41 0.0 0.9 0.00 0.00 0.00 33 1014.5
20260501222344 64 21 1.7 2.6 0.00 0.00 0.00 33 1014.6
20260501221840 64 40 0.9 1.7 0.00 0.00 0.00 33 1014.6
20260501221338 65 34 0.9 1.7 0.00 0.00 0.00 33 1014.8
20260501220836 65 20 0.9 0.9 0.00 0.00 0.00 32 1014.5
20260501220333 65 43 0.9 1.7 0.00 0.00 0.00 31 1014.5
20260501215829 66 31 0.9 1.7 0.00 0.00 0.00 32 1014.5
20260501215325 65 70 0.9 0.9 0.00 0.00 0.00 31 1014.6
20260501214821 66 41 1.7 1.7 0.00 0.00 0.00 31 1014.7
20260501214316 66 54 0.9 2.6 0.00 0.00 0.00 32 1014.8
20260501213813 66 40 0.0 0.9 0.00 0.00 0.00 34 1014.8
20260501213309 66 62 0.9 0.9 0.00 0.00 0.00 30 1015.0
20260501212805 67 42 0.9 0.9 0.00 0.00 0.00 29 1014.7
20260501212305 67 37 0.9 1.7 0.00 0.00 0.00 34 1014.5
20260501211759 66 54 0.0 0.0 0.00 0.00 0.00 34 1014.7
20260501211257 66 43 0.9 0.9 0.00 0.00 0.00 33 1014.9
20260501210753 67 50 0.0 0.9 0.00 0.00 0.00 34 1014.8
20260501210249 67 54 0.0 0.0 0.00 0.00 0.00 32 1015.2
20260501205746 67 44 2.6 3.5 0.00 0.00 0.00 30 1015.0
20260501205243 68 98 1.7 2.6 0.00 0.00 0.00 33 1015.3
20260501204740 68 57 0.9 0.9 0.00 0.00 0.00 30 1015.5
20260501204237 68 40 1.7 1.7 0.00 0.00 0.00 29 1015.5
20260501203733 68 43 0.0 0.0 0.00 0.00 0.00 29 1015.8
20260501203230 68 65 0.9 0.9 0.00 0.00 0.00 31 1015.6
20260501202727 67 43 0.0 0.9 0.00 0.00 0.00 32 1015.8
20260501202224 67 356 1.7 2.6 0.00 0.00 0.00 32 1016.0
20260501201721 68 41 0.0 0.9 0.00 0.00 0.00 31 1016.0
20260501201218 68 32 0.9 1.7 0.00 0.00 0.00 32 1016.1
20260501200714 68 37 0.9 0.9 0.00 0.00 0.00 30 1016.3
20260501200212 67 67 1.7 1.7 0.00 0.00 0.00 34 1016.5
20260501195709 67 59 0.9 1.7 0.00 0.00 0.00 32 1016.4
20260501195205 67 78 0.9 0.9 0.00 0.00 0.00 32 1016.7
20260501194701 66 36 1.7 1.7 0.00 0.00 0.00 35 1016.6